Simultaneous Nadir Overpasses (SNOs) Predictions

Prediction of SNOs between GOES-15 and METOP-B Satellite Orbit:

Table of predicted SNOs for the next 14.0 days since TLE Epoch: 1/20/2024
Index Date Time (GOES-15) GOES-15 Lat,Lon METOP-B Lat,Lon Distance(km) Time Diff (sec)
1 01/20/2024 17:25:09 0.01, 61.67 -0.23, 60.61 120.74 80
2 01/21/2024 17:01:52 0.02, 61.70 0.87, 65.60 443.81 80
3 01/23/2024 05:20:47 -0.02, 61.72 0.12, 61.01 80.17 80
4 01/24/2024 05:02:50 -0.02, 61.73 -0.98, 65.99 485.39 80
5 01/25/2024 17:21:53 0.01, 61.78 -0.07, 61.38 45.88 80
6 01/28/2024 05:17:30 0.00, 61.84 -0.01, 61.78 6.62 80
7 01/30/2024 17:15:55 -0.01, 61.90 0.03, 62.16 29.41 80
8 02/01/2024 05:34:49 0.01, 61.95 0.99, 57.58 498.18 80
9 02/02/2024 05:16:52 0.01, 61.98 -0.12, 62.56 66.94 80
